| time (UTC) | temp C | wind direction | speed KPH | gust KPH | rain 1hr cm | rain 24hr cm | rain mn cm | humidity % | barometer mb |
| 20260504050529 | 18 | 107 | 9.7 | 14.5 | 0.00 | 0.00 | 0.00 | 72 | 1017.7 |
| 20260504045528 | 18 | 116 | 8.0 | 11.3 | 0.00 | 0.00 | 0.00 | 72 | 1017.9 |
| 20260504045028 | 18 | 106 | 6.4 | 11.3 | 0.00 | 0.00 | 0.00 | 72 | 1017.9 |
| 20260504044528 | 18 | 127 | 8.0 | 16.1 | 0.00 | 0.00 | 0.00 | 72 | 1017.8 |
| 20260504044028 | 18 | 0 | 8.0 | 16.1 | 0.00 | 0.00 | 0.00 | 72 | 1017.9 |
| 20260504043527 | 18 | 109 | 8.0 | 11.3 | 0.00 | 0.00 | 0.00 | 71 | 1018.1 |
| 20260504043027 | 18 | 0 | 9.7 | 11.3 | 0.00 | 0.00 | 0.00 | 72 | 1018.1 |
| 20260504042528 | 18 | 113 | 6.4 | 9.7 | 0.00 | 0.00 | 0.00 | 71 | 1018.3 |
| 20260504042028 | 18 | 94 | 6.4 | 9.7 | 0.00 | 0.00 | 0.00 | 71 | 1018.5 |
| 20260504041528 | 18 | 134 | 6.4 | 9.7 | 0.00 | 0.00 | 0.00 | 71 | 1018.4 |
| 20260504040528 | 18 | 100 | 4.8 | 9.7 | 0.00 | 0.00 | 0.00 | 71 | 1018.5 |
| 20260504040028 | 19 | 116 | 4.8 | 9.7 | 0.00 | 0.00 | 0.00 | 71 | 1018.6 |
| 20260504035027 | 19 | 118 | 6.4 | 9.7 | 0.00 | 0.00 | 0.00 | 70 | 1018.5 |
| 20260504034527 | 19 | 113 | 6.4 | 9.7 | 0.00 | 0.00 | 0.00 | 70 | 1018.5 |
| 20260504033527 | 19 | 130 | 8.0 | 11.3 | 0.00 | 0.00 | 0.00 | 70 | 1018.3 |
| 20260504033027 | 19 | 128 | 6.4 | 11.3 | 0.00 | 0.00 | 0.00 | 69 | 1018.3 |
| 20260504032026 | 19 | 109 | 6.4 | 14.5 | 0.00 | 0.00 | 0.00 | 69 | 1018.2 |
| 20260504031527 | 19 | 120 | 8.0 | 14.5 | 0.00 | 0.00 | 0.00 | 69 | 1018.1 |
| 20260504030527 | 19 | 109 | 6.4 | 16.1 | 0.00 | 0.00 | 0.00 | 68 | 1018.0 |
| 20260504030026 | 20 | 123 | 8.0 | 16.1 | 0.00 | 0.00 | 0.00 | 68 | 1018.0 |
| 20260504025026 | 20 | 121 | 11.3 | 19.3 | 0.00 | 0.00 | 0.00 | 68 | 1018.2 |
| 20260504024526 | 20 | 75 | 9.7 | 17.7 | 0.00 | 0.00 | 0.00 | 68 | 1018.1 |
| 20260504024026 | 20 | 120 | 11.3 | 17.7 | 0.00 | 0.00 | 0.00 | 67 | 1018.1 |
| 20260504023026 | 20 | 0 | 9.7 | 17.7 | 0.00 | 0.00 | 0.00 | 67 | 1018.0 |
| 20260504022526 | 20 | 141 | 8.0 | 17.7 | 0.00 | 0.00 | 0.00 | 67 | 1018.1 |
| 20260504021526 | 20 | 106 | 12.9 | 19.3 | 0.00 | 0.00 | 0.00 | 66 | 1018.0 |
| 20260504021025 | 20 | 113 | 14.5 | 20.9 | 0.00 | 0.00 | 0.00 | 66 | 1017.9 |
| 20260504020025 | 20 | 135 | 12.9 | 24.1 | 0.00 | 0.00 | 0.00 | 65 | 1018.0 |
| 20260504015525 | 20 | 140 | 12.9 | 24.1 | 0.00 | 0.00 | 0.00 | 65 | 1017.9 |
| 20260504014525 | 21 | 130 | 9.7 | 24.1 | 0.00 | 0.00 | 0.00 | 64 | 1017.7 |
| 20260504014024 | 21 | 116 | 12.9 | 29.0 | 0.00 | 0.00 | 0.00 | 64 | 1017.6 |
| 20260504013524 | 21 | 116 | 12.9 | 29.0 | 0.00 | 0.00 | 0.00 | 63 | 1017.6 |
| 20260504013025 | 21 | 100 | 9.7 | 22.5 | 0.00 | 0.00 | 0.00 | 62 | 1017.5 |
| 20260504012525 | 21 | 144 | 12.9 | 22.5 | 0.00 | 0.00 | 0.00 | 62 | 1017.3 |
| 20260504012024 | 21 | 131 | 8.0 | 24.1 | 0.00 | 0.00 | 0.00 | 61 | 1017.3 |
| 20260504011524 | 21 | 148 | 14.5 | 27.4 | 0.00 | 0.00 | 0.00 | 60 | 1017.2 |
| 20260504011024 | 21 | 123 | 12.9 | 27.4 | 0.00 | 0.00 | 0.00 | 60 | 1017.2 |
| 20260504010524 | 22 | 124 | 9.7 | 25.7 | 0.00 | 0.00 | 0.00 | 59 | 1017.3 |
| 20260504010024 | 22 | 104 | 11.3 | 25.7 | 0.00 | 0.00 | 0.00 | 58 | 1017.3 |
| 20260504005524 | 22 | 123 | 12.9 | 20.9 | 0.00 | 0.00 | 0.00 | 58 | 1017.3 |
| 20260504004524 | 22 | 113 | 12.9 | 22.5 | 0.00 | 0.00 | 0.00 | 57 | 1017.0 |
| 20260504004024 | 22 | 113 | 14.5 | 24.1 | 0.00 | 0.00 | 0.00 | 57 | 1017.2 |
| 20260504003023 | 23 | 127 | 16.1 | 29.0 | 0.00 | 0.00 | 0.00 | 55 | 1017.1 |
| 20260504002523 | 23 | 151 | 11.3 | 29.0 | 0.00 | 0.00 | 0.00 | 54 | 1017.2 |
| 20260504001523 | 23 | 130 | 16.1 | 29.0 | 0.00 | 0.00 | 0.00 | 52 | 1017.4 |
| 20260504001023 | 23 | 114 | 9.7 | 22.5 | 0.00 | 0.00 | 0.00 | 50 | 1017.5 |
| 20260504000523 | 23 | 0 | 11.3 | 25.7 | 0.00 | 0.00 | 0.00 | 50 | 1017.5 |
| 20260503235523 | 23 | 0 | 11.3 | 25.7 | 0.00 | 0.00 | 0.00 | 49 | 1017.5 |
| 20260503235023 | 24 | 114 | 14.5 | 25.7 | 0.00 | 0.00 | 0.00 | 49 | 1017.4 |
| 20260503234023 | 24 | 125 | 14.5 | 25.7 | 0.00 | 0.00 | 0.00 | 49 | 1017.3 |
| 20260503233522 | 24 | 94 | 17.7 | 25.7 | 0.00 | 0.00 | 0.00 | 49 | 1017.4 |
| 20260503232523 | 24 | 140 | 14.5 | 30.6 | 0.00 | 0.00 | 0.00 | 48 | 1017.3 |
| 20260503232023 | 24 | 110 | 16.1 | 27.4 | 0.00 | 0.00 | 0.00 | 49 | 1017.3 |
| 20260503231523 | 25 | 133 | 14.5 | 27.4 | 0.00 | 0.00 | 0.00 | 48 | 1017.2 |
| 20260503231022 | 25 | 102 | 17.7 | 27.4 | 0.00 | 0.00 | 0.00 | 48 | 1017.3 |
| 20260503230522 | 25 | 114 | 12.9 | 27.4 | 0.00 | 0.00 | 0.00 | 48 | 1017.4 |
| 20260503230023 | 25 | 0 | 16.1 | 27.4 | 0.00 | 0.00 | 0.00 | 48 | 1017.5 |
| 20260503225522 | 25 | 107 | 12.9 | 25.7 | 0.00 | 0.00 | 0.00 | 49 | 1017.5 |
| 20260503225022 | 25 | 130 | 14.5 | 30.6 | 0.00 | 0.00 | 0.00 | 47 | 1017.5 |
| 20260503224521 | 25 | 137 | 14.5 | 32.2 | 0.00 | 0.00 | 0.00 | 47 | 1017.5 |
| 20260503224021 | 25 | 113 | 22.5 | 32.2 | 0.00 | 0.00 | 0.00 | 47 | 1017.6 |
| 20260503223521 | 25 | 79 | 14.5 | 27.4 | 0.00 | 0.00 | 0.00 | 47 | 1017.7 |
| 20260503223021 | 25 | 138 | 11.3 | 30.6 | 0.00 | 0.00 | 0.00 | 47 | 1017.7 |
| 20260503222522 | 25 | 142 | 17.7 | 30.6 | 0.00 | 0.00 | 0.00 | 46 | 1017.7 |
| 20260503222021 | 25 | 199 | 12.9 | 27.4 | 0.00 | 0.00 | 0.00 | 46 | 1017.7 |
| 20260503221021 | 25 | 117 | 6.4 | 25.7 | 0.00 | 0.00 | 0.00 | 45 | 1017.8 |
| 20260503220521 | 25 | 145 | 11.3 | 25.7 | 0.00 | 0.00 | 0.00 | 45 | 1017.9 |
| 20260503215521 | 25 | 93 | 9.7 | 29.0 | 0.00 | 0.00 | 0.00 | 46 | 1017.7 |
| 20260503215021 | 25 | 124 | 16.1 | 27.4 | 0.00 | 0.00 | 0.00 | 48 | 1018.0 |
| 20260503214021 | 25 | 63 | 14.5 | 25.7 | 0.00 | 0.00 | 0.00 | 47 | 1018.2 |
| 20260503213520 | 26 | 62 | 16.1 | 27.4 | 0.00 | 0.00 | 0.00 | 47 | 1018.4 |
| 20260503213021 | 26 | 178 | 17.7 | 27.4 | 0.00 | 0.00 | 0.00 | 46 | 1018.4 |
| 20260503212520 | 26 | 145 | 14.5 | 25.7 | 0.00 | 0.00 | 0.00 | 47 | 1018.5 |
| 20260503211520 | 25 | 116 | 11.3 | 20.9 | 0.00 | 0.00 | 0.00 | 46 | 1018.7 |
| 20260503211020 | 25 | 145 | 9.7 | 20.9 | 0.00 | 0.00 | 0.00 | 47 | 1018.9 |
| 20260503210020 | 26 | 159 | 11.3 | 25.7 | 0.00 | 0.00 | 0.00 | 46 | 1019.1 |
| 20260503205520 | 26 | 178 | 11.3 | 25.7 | 0.00 | 0.00 | 0.00 | 47 | 1019.1 |
| 20260503204519 | 26 | 85 | 12.9 | 24.1 | 0.00 | 0.00 | 0.00 | 45 | 1019.2 |
| 20260503204019 | 26 | 135 | 6.4 | 22.5 | 0.00 | 0.00 | 0.00 | 44 | 1019.3 |
| 20260503203519 | 25 | 134 | 12.9 | 22.5 | 0.00 | 0.00 | 0.00 | 45 | 1019.4 |
| 20260503202520 | 26 | 165 | 14.5 | 25.7 | 0.00 | 0.00 | 0.00 | 43 | 1019.5 |
| 20260503202020 | 27 | 123 | 3.2 | 16.1 | 0.00 | 0.00 | 0.00 | 42 | 1019.5 |
| 20260503201019 | 26 | 125 | 14.5 | 24.1 | 0.00 | 0.00 | 0.00 | 43 | 1019.7 |
| 20260503200519 | 26 | 125 | 9.7 | 22.5 | 0.00 | 0.00 | 0.00 | 43 | 1019.7 |
| 20260503195519 | 26 | 131 | 4.8 | 24.1 | 0.00 | 0.00 | 0.00 | 43 | 1019.8 |
| 20260503195018 | 26 | 120 | 14.5 | 25.7 | 0.00 | 0.00 | 0.00 | 44 | 1019.9 |
| 20260503194518 | 26 | 214 | 4.8 | 25.7 | 0.00 | 0.00 | 0.00 | 43 | 1020.0 |
| 20260503194019 | 26 | 0 | 12.9 | 22.5 | 0.00 | 0.00 | 0.00 | 43 | 1020.1 |
| 20260503193519 | 26 | 96 | 4.8 | 20.9 | 0.00 | 0.00 | 0.00 | 45 | 1020.2 |
| 20260503193018 | 26 | 107 | 9.7 | 20.9 | 0.00 | 0.00 | 0.00 | 42 | 1020.4 |
| 20260503192518 | 26 | 111 | 8.0 | 20.9 | 0.00 | 0.00 | 0.00 | 44 | 1020.6 |
| 20260503192018 | 26 | 118 | 9.7 | 20.9 | 0.00 | 0.00 | 0.00 | 42 | 1020.6 |
| 20260503191518 | 26 | 100 | 9.7 | 24.1 | 0.00 | 0.00 | 0.00 | 44 | 1020.6 |
| 20260503191018 | 25 | 106 | 16.1 | 25.7 | 0.00 | 0.00 | 0.00 | 44 | 1020.7 |
| 20260503190518 | 26 | 114 | 14.5 | 25.7 | 0.00 | 0.00 | 0.00 | 43 | 1020.8 |
| 20260503190019 | 26 | 45 | 3.2 | 24.1 | 0.00 | 0.00 | 0.00 | 42 | 1020.8 |
| 20260503185518 | 26 | 118 | 12.9 | 24.1 | 0.00 | 0.00 | 0.00 | 44 | 1021.0 |
| 20260503185017 | 26 | 110 | 11.3 | 25.7 | 0.00 | 0.00 | 0.00 | 43 | 1021.0 |
| 20260503184518 | 25 | 152 | 12.9 | 25.7 | 0.00 | 0.00 | 0.00 | 43 | 1021.0 |
| 20260503184017 | 25 | 159 | 8.0 | 20.9 | 0.00 | 0.00 | 0.00 | 44 | 1021.1 |
| 20260503183517 | 25 | 31 | 4.8 | 27.4 | 0.00 | 0.00 | 0.00 | 44 | 1021.2 |
| 20260503183018 | 25 | 117 | 9.7 | 27.4 | 0.00 | 0.00 | 0.00 | 45 | 1021.3 |
| 20260503182517 | 25 | 110 | 6.4 | 24.1 | 0.00 | 0.00 | 0.00 | 42 | 1021.3 |
| 20260503182018 | 25 | 87 | 17.7 | 24.1 | 0.00 | 0.00 | 0.00 | 44 | 1021.4 |
| 20260503181517 | 25 | 113 | 3.2 | 20.9 | 0.00 | 0.00 | 0.00 | 45 | 1021.5 |
| 20260503181017 | 25 | 149 | 9.7 | 22.5 | 0.00 | 0.00 | 0.00 | 44 | 1021.6 |
| 20260503180517 | 25 | 107 | 11.3 | 22.5 | 0.00 | 0.00 | 0.00 | 44 | 1021.7 |
| 20260503175517 | 25 | 152 | 6.4 | 17.7 | 0.00 | 0.00 | 0.00 | 45 | 1021.8 |
| 20260503175017 | 25 | 109 | 8.0 | 16.1 | 0.00 | 0.00 | 0.00 | 45 | 1021.9 |
| 20260503174017 | 25 | 0 | 9.7 | 20.9 | 0.00 | 0.00 | 0.00 | 46 | 1022.2 |
| 20260503173516 | 24 | 168 | 9.7 | 20.9 | 0.00 | 0.00 | 0.00 | 47 | 1022.4 |
| 20260503172518 | 25 | 76 | 9.7 | 17.7 | 0.00 | 0.00 | 0.00 | 46 | 1022.3 |
| 20260503172016 | 25 | 79 | 8.0 | 17.7 | 0.00 | 0.00 | 0.00 | 45 | 1022.3 |
| 20260503171516 | 25 | 45 | 6.4 | 24.1 | 0.00 | 0.00 | 0.00 | 47 | 1022.4 |
| 20260503170516 | 24 | 110 | 4.8 | 17.7 | 0.00 | 0.00 | 0.00 | 47 | 1022.5 |
| 20260503151014 | 21 | 62 | 1.6 | 11.3 | 0.00 | 0.00 | 0.00 | 63 | 1023.0 |
| 20260503150514 | 21 | 68 | 6.4 | 11.3 | 0.00 | 0.00 | 0.00 | 64 | 1023.1 |
| 20260503130511 | 11 | 295 | 0.0 | 3.2 | 0.00 | 0.00 | 0.00 | 83 | 1022.7 |
| 20260503110501 | 11 | 0 | 4.8 | 6.4 | 0.00 | 0.00 | 0.00 | 80 | 1021.2 |
| 20260503090500 | 12 | 54 | 1.6 | 3.2 | 0.00 | 0.00 | 0.00 | 77 | 1021.2 |
| 20260503081001 | 12 | 16 | 3.2 | 4.8 | 0.00 | 0.00 | 0.00 | 76 | 1021.3 |
| 20260503080506 | 12 | 16 | 3.2 | 4.8 | 0.00 | 0.00 | 0.00 | 76 | 1021.4 |
| 20260503072001 | 13 | 23 | 1.6 | 4.8 | 0.00 | 0.00 | 0.00 | 74 | 1021.7 |
| 20260503071501 | 13 | 38 | 3.2 | 4.8 | 0.00 | 0.00 | 0.00 | 73 | 1021.7 |
| 20260503070506 | 13 | 47 | 3.2 | 4.8 | 0.00 | 0.00 | 0.00 | 73 | 1021.7 |